This is the latest recevied weather packets stored in our database for station/object 1NW106. If no packets are shown the sender has not sent any weather packets the latest 10 day(s).
| Time | Temp. | Humidity | Pressure | Rain* | Wind** | Luminosity | Snow |
|---|---|---|---|---|---|---|---|
| 1788570126 | 23.89° C | 99% | 1005.9 hPa | 1.52 mm | - | - | - |
| 1788569526 | 17.22° C | 70% | 1006.2 hPa | 1.52 mm | - | - | - |
| 1788568926 | 23.33° C | 99% | 1006.1 hPa | 1.52 mm | - | - | - |
| 1788568326 | 10.56° C | 40% | 1006.2 hPa | 1.52 mm | - | - | - |
| 1788567726 | 23.33° C | 99% | 1006.4 hPa | 1.52 mm | - | - | - |
| 1788567126 | 23.33° C | 99% | 1006.3 hPa | 1.52 mm | - | - | - |
| 1788566526 | 23.33° C | 99% | 1006.2 hPa | 1.52 mm | - | - | - |
| 1788565926 | 23.33° C | 99% | 1006 hPa | 1.52 mm | - | - | - |
| 1788565326 | 23.33° C | 99% | 1005.9 hPa | 1.52 mm | - | - | - |
| 1788564726 | 23.33° C | 99% | 1005.8 hPa | 1.52 mm | - | - | - |
| 1788564127 | 23.33° C | 99% | 1005.8 hPa | 1.52 mm | - | - | - |
| 1788563526 | 22.78° C | 99% | 1005.7 hPa | 1.52 mm | - | - | - |
| 1788562926 | 22.78° C | 99% | 1005.7 hPa | 1.52 mm | - | - | - |
| 1788562326 | 22.78° C | 99% | 1005.7 hPa | 1.52 mm | - | - | - |
| 1788561726 | 22.78° C | 99% | 1005.5 hPa | 1.52 mm | - | - | - |
| 1788561126 | 22.78° C | 99% | 1005.4 hPa | 1.52 mm | - | - | - |
| 1788560526 | 22.78° C | 99% | 1005.5 hPa | 1.52 mm | - | - | - |
| 1788559926 | 22.78° C | 99% | 1005.5 hPa | 1.52 mm | - | - | - |
| 1788559326 | 22.78° C | 99% | 1005.3 hPa | 1.52 mm | - | - | - |
| 1788558726 | 22.78° C | 99% | 1005.2 hPa | 1.52 mm | - | - | - |
| 1788558126 | 22.78° C | 99% | 1005.1 hPa | 1.52 mm | - | - | - |
| 1788557526 | 22.78° C | 99% | 1005 hPa | 1.52 mm | - | - | - |
| 1788556926 | 22.78° C | 99% | 1005 hPa | 1.52 mm | - | - | - |
| 1788556326 | 22.78° C | 99% | 1004.9 hPa | 1.52 mm | - | - | - |
| 1788555726 | 22.78° C | 99% | 1004.8 hPa | 1.52 mm | - | - | - |
* Rain latest hour (hover to see other rain measurements)
** Current wind speed in m/s (hover to see current wind gust speed)